Location: Narrabri
(30.3170°S, 149.7830°E)
Time: 01:24:52
(UTC+11:00)

Hubble Space Telescope - Pass Details

Date: 09 October 2017
Orbit: 537 x 541 km, 28.5° (Epoch: 19 October)

Event Time Altitude Azimuth Distance (km) Brightness Sun altitude
Rises 19:31:56 0° 275° (W) 2,687 6.1 -6.1°
Reaches altitude 10° 19:34:54 10° 297° (WNW) 1,791 4.3 -6.8°
Maximum altitude 19:37:28 16° 335° (NNW) 1,448 3.1 -7.3°
Drops below altitude 10° 19:40:01 10° 14° (NNE) 1,784 3.2 -7.8°
Enters shadow 19:42:24 - 33° (NNE) 2,477 3.7 -8.3°
